Location: Unspecified
(44.4377°N, 88.0525°W)
Time: 12:22:11
(UTC-05:00)

Resurs 1-4 Rocket - Visible Passes

Search period start: 24 June 2017 00:00
Search period end: 04 July 2017 00:00
Orbit: 801 x 813 km, 98.5° (Epoch: 23 June)

Date Brightness Start Highest point End Pass type
(mag) Time Alt. Az. Time Alt. Az. Time Alt. Az.
24 Jun 2.8 02:51:00 10° NNE 02:56:09 48° E 03:00:04 17° SSE visible
24 Jun 3.5 04:31:25 10° N 04:35:42 25° WNW 04:39:58 10° WSW visible
25 Jun 3.6 02:26:48 10° NE 02:31:26 29° E 02:35:11 14° SSE visible
25 Jun 2.9 04:06:25 10° N 04:11:21 39° WNW 04:16:14 10° SW visible
26 Jun 4.2 02:03:02 10° NE 02:06:37 18° E 02:10:12 10° SE visible
26 Jun 2.3 03:41:38 10° N 03:46:54 63° WNW 03:51:23 14° SSW visible
27 Jun 4.6 01:40:47 10° ENE 01:41:43 10° E 01:42:39 10° E visible
27 Jun 2.2 03:17:01 10° NNE 03:22:22 81° ESE 03:26:30 17° S visible
28 Jun 2.8 02:52:35 10° NNE 02:57:46 50° E 03:01:36 17° S visible
29 Jun 3.5 02:28:22 10° NE 02:33:03 30° E 02:36:43 15° SSE visible
29 Jun 2.9 04:08:03 10° N 04:12:56 38° WNW 04:17:47 10° SW visible
30 Jun 4.2 02:04:33 10° NE 02:08:15 19° E 02:11:49 10° SE visible
30 Jun 2.3 03:43:15 10° N 03:48:30 61° WNW 03:52:54 15° SSW visible
01 Jul 4.6 01:41:59 10° ENE 01:43:21 11° E 01:44:43 10° ESE visible
01 Jul 2.1 03:18:37 10° NNE 03:23:58 84° ESE 03:28:00 18° SSW visible
02 Jul 2.7 02:54:10 10° NNE 02:59:22 51° E 03:03:07 18° S visible
02 Jul 3.5 04:34:42 10° N 04:38:51 24° WNW 04:42:59 10° WSW visible
03 Jul 3.5 02:29:57 10° NNE 02:34:40 31° E 02:38:13 16° SSE visible
03 Jul 2.9 04:09:40 10° N 04:14:31 37° WNW 04:19:17 10° SW visible
